Location: Ferchesar
(52.6477°N, 12.4298°E)
Time: 09:54:11
(UTC+01:00)

Tiros 1 despin weight - Pass Details

Date: 14 December 2021
Orbit: 592 x 641 km, 48.2° (Epoch: 19 January)

Event Time Altitude Azimuth Distance (km) Brightness Sun altitude
Rises 14:00:03 0° 274° (W) 2,846 ? 10.1°
Reaches altitude 10° 14:02:33 10° 263° (W) 1,935 ? 9.9°
Maximum altitude 14:06:24 29° 203° (SSW) 1,086 ? 9.6°
Drops below altitude 10° 14:10:13 10° 143° (SE) 1,918 ? 9.4°
Sets 14:12:41 0° 132° (SE) 2,816 ? 9.2°
